This demonstration page uses our WeatherBlox Daily Observations layout. Learn more.

Left ArrowRight Arrow

41.55636, -103.73856

Hourly Observations for September 18, 2021

Temp ( °F °C ) Dew Point ( °F °C ) Humidity (%) Winds ( mph kmh ) Pressure ( in mb ) Visibility ( mi km ) Precip ( " mm )
12:58 am 00:58 Clear 58 14.4 48 8.9 70 70 SSW 32 52 30.07 1018 10 16 N/A
1:58 am 01:58 Clear 57 14.1 49 9.6 75 75 SSW 32 52 30.06 1018 10 16 N/A
2:58 am 02:58 Clear 57 13.8 48 9.1 73 73 SSW 30 48 30.05 1018 10 16 N/A
3:58 am 03:58 Clear 56 13.5 48 8.8 73 73 SSW 29 46 30.04 1017 10 16 N/A
4:58 am 04:58 Clear 55 12.6 47 8.1 74 74 SSW 26 43 30.05 1018 10 16 N/A
5:58 am 05:58 Clear 53 11.6 47 8.2 80 80 WSW 16 26 30.07 1018 10 16 N/A
6:58 am 06:58 Sunny 51 10.5 45 7.4 81 81 SW 12 19 30.10 1019 10 16 N/A
7:58 am 07:58 Sunny 57 13.9 44 6.5 61 61 WSW 9 15 30.08 1019 10 16 N/A
8:58 am 08:58 Sunny 67 19.2 42 5.3 40 40 W 3 6 30.04 1017 10 16 N/A
9:58 am 09:58 Sunny 77 25.2 30 -1.1 18 18 W 5 7 30.01 1016 10 16 N/A
10:58 am 10:58 Sunny 85 29.4 23 -4.8 10 10 W 3 6 29.98 1015 10 16 N/A
11:58 am 11:58 Sunny 89 31.7 19 -7.4 7 7 WSW 10 17 29.95 1014 10 16 N/A
12:58 pm 12:58 Sunny 90 32.3 15 -9.5 6 6 W 10 17 29.92 1013 10 16 N/A
1:58 pm 13:58 Sunny 92 33.5 15 -9.4 6 6 WSW 12 19 29.87 1012 10 16 N/A
2:58 pm 14:58 Sunny 93 34 15 -9.4 5 5 SW 15 24 29.85 1011 10 16 N/A
3:58 pm 15:58 Sunny 93 34 15 -9.4 5 5 SSW 13 20 29.82 1010 10 16 N/A
4:58 pm 16:58 Sunny 91 32.8 24 -4.4 9 9 S 15 24 29.81 1009 10 16 N/A
5:58 pm 17:58 Sunny 87 30.5 22 -5.3 9 9 S 23 37 29.80 1009 10 16 N/A
6:58 pm 18:58 Sunny 80 26.8 27 -3 14 14 S 16 26 29.83 1010 10 16 N/A
7:58 pm 19:58 Mostly Cloudy 79 26 26 -3.2 14 14 S 18 30 29.82 1010 10 16 N/A
8:58 pm 20:58 Mostly Cloudy 77 24.8 26 -3.6 15 15 W 15 24 29.85 1011 10 16 N/A
9:58 pm 21:58 Mostly Clear 75 23.8 36 2.4 25 25 S 6 9 29.83 1010 10 16 N/A
10:58 pm 22:58 Partly Cloudy 73 22.9 35 1.5 24 24 SSE 13 20 29.80 1009 10 16 N/A
11:58 pm 23:58 Mostly Cloudy 74 23.5 38 3.1 26 26 S 14 22 29.76 1008 10 16 N/A

Powered by AerisWeather